Location: Betpouey
(42.8833°N, 0.0333°E)
Time: 22:22:24
(UTC+00:00)

Meteor 1-14 Rocket - Pass Details

Date: 01 December 2020
Orbit: 834 x 919 km, 81.3° (Epoch: 19 January)

Event Time Altitude Azimuth Distance (km) Brightness Sun altitude
Rises 17:53:33 0° 350° (N) 3,552 7.4 -15.5°
Reaches altitude 10° 17:56:01 10° 351° (N) 2,613 6.7 -15.9°
Maximum altitude 18:02:02 86° 81° (E) 926 4.3 -17.0°
Drops below altitude 10° 18:08:00 10° 170° (S) 2,603 6.8 -18.1°
Sets 18:10:28 0° 171° (S) 3,537 7.5 -18.5°
